Starlink 33878

operational
NORAD ID: 63862 Int'l Des: 2025-093 Owner: SPXS Country: US Constellation: starlink
LEOCIRCULAR

关于 Starlink 33878

正在加载描述...

实时位置

正在加载3D地球...

即将过境

高度历史

Altitude vs Time

uPlot chart will show altitude changes over time

两行轨道根数

1 63862U 25093AC 26061.19197250 .00012574 00000-0 46552-3 0 9997
2 63862 42.9983 120.3580 0001048 262.6548 97.4184 15.27590302 46813
Epoch: Mar 2, 2026 • Age: 26 hours

当前状态

高度 494.6 km
速度 7.62 km/s
星下点 -40.62°S, 169°E
发射日期 May 7, 2025
运行时间 0.8 years
类型 internet

技术详情

分类 Payload
质量 575.00 kg
干质量 530.00 kg
总质量 575.00 kg
长度 0.30 m
直径 4.10 m
跨度 29.00 m
形状 Box + pan
制造商 SPXS
平台类型 Starlink V2MO
阶段状态 In Orbit
所有者/国家 SPXS/US

大型星座

Loading constellations...